12-Jun-99,91.8
3-Jul-99,98.8
15-Aug-99,91.6
25-Sep-99,93.3
22-Oct-99,97.4
19-Nov-99,89
25-Dec-99,87.6
29-Jan-00,90.7
12-Feb-00,85.7
9-Mar-00,88.7
27-Jul-01,79.8
1-Sep-01,82.5
18-Oct-01,86.8
8-Dec-01,80
16-Feb-02,75.7
16-Mar-02,71.3
20-Apr-02,72.8
28-May-02,71.7
26-Jul-02,75.3
18-Oct-02,77.1
18-Nov-02,80.4
30-Nov-02,75.8
25-Dec-02,72.6
17-Jan-03,68.4
24-Feb-03,67
17-Mar-03,63.8
2-May-03,61.7
13-Jun-03,69.1
12-Jul-03,70.1
16-Aug-03,69.8
13-Sep-03,71.5
10-Oct-03,74.1
10-Jan-04,70
13-Mar-04,62.7
9-Apr-04,64.1
7-May-04,63.7
10-Jun-04,62.6
1-Jul-04,60.9
13-Aug-04,67.1
13-Sep-04,63.5
7-Oct-04,67.2
12-Nov-04,67.4
18-Feb-05,62.7
25-Mar-05,60.3
22-Apr-05,59.7
20-May-05,56.5
17-Jun-05,57.9
22-Jul-05,64.9
30-Sep-05,61.4
24-Oct-05,58.8
14-Dec-05,56.1
20-Jan-06,55.9
17-Feb-06,52.9
17-Mar-06,54.8
21-Apr-06,49.1
26-May-06,52.5
16-Jun-06,55.4
28-Jul-06,57
31-Aug-06,53.3
22-Sep-06,57.1
3-Nov-06,61.1
15-Dec-06,53
5-Jan-07,48.2
9-Feb-07,54
9-Mar-07,50.5
6-Apr-07,49.8
4-May-07,52.2
8-Jun-07,49.2
17-Aug-07,51.5
7-Sep-07,46.6
12-Oct-07,48.5
1-Nov-07,46.1
7-Dec-07,49.1
